Regional Weather Roundup
Issued by NWS Wakefield, VA

Home | Current Version | Previous Version | Graphics & Text | Print | Product List | Glossary On
Versions: 1 2 3 4 5 6 7 8 9 10 11 12 13 14 15 16 17 18 19 20 21 22 23 24 25 26 27 28 29 30 31 32 33 34 35 36 37 38 39 40 41 42 43 44 45 46 47 48 49 50
000
ASUS41 KAKQ 282310
RWRAKQ

REGIONAL WEATHER ROUNDUP
NATIONAL WEATHER SERVICE WAKEFIELD VA
700 PM EDT THU AUG 28 2014

Note: "fair" indicates few or no clouds below 12,000 feet with no
significant weather and/or obstructions to visibility. * = Denotes
station may not report precipitation (e.g., rain,snow,etc.),
thunder or fog.

VAZ042-051-052>054-056-290000-
NORTHERN VIRGINIA

CITY           SKY/WX    TMP DP  RH WIND       PRES   REMARKS
WASH NATIONAL  PTCLDY    83  52  34 N13       29.99R
DULLES         PTCLDY    79  53  40 N8        29.99S
FORT BELVOIR   CLEAR     82  55  39 VRB6      29.99R
QUANTICO       PTCLDY    83  61  47 N6        29.98R
FREDERICKSBRG* CLEAR     84  62  48 E5        29.96S
STAFFORD*      CLEAR     81  63  53 N3        30.02R
WARRENTON      CLEAR     82  63  52 N6        29.99R
CULPEPER*      CLEAR    N/A N/A N/A N6        29.99R
MANASSAS*      CLEAR     81  57  44 N10       29.99R
LEESBURG*      CLEAR     81  55  41 N6        30.01S
WINCHESTER     CLEAR     79  48  34 N7        30.02R
$$

VAZ048-049-060>072-079>083-290000-
CENTRAL AND SOUTH CENTRAL VIRGINIA...AND NORTH CENTRAL NORTH CAROLINA

CITY           SKY/WX    TMP DP  RH WIND       PRES   REMARKS
RICHMOND       MOCLDY    86  56  35 NE8       29.96R
CHESTERFIELD*  MOCLDY    86  63  45 NE3       29.97R
PETERSBURG*    CLEAR     83  69  61 CALM      29.96S
HANOVER        MOCLDY    83  66  56 CALM      29.98R
TAPPAHANNOCK*  CLEAR     82  56  39 CALM      29.98R
CHARLOTTSVILLE CLEAR     83  62  49 E6        29.98R
ORANGE*        CLEAR     82  61  47 CALM      30.00R
LOUISA*        CLEAR     82  66  57 CALM      29.97S
FARMVILLE*     MOCLDY    86  70  58 CALM      29.94S
SOUTH HILL*    CLEAR     84  75  74 CALM      30.01S
ROANOKE RAPIDS PTCLDY    86  72  62 CALM      29.95S
RALEIGH        PTCLDY    88  70  55 CALM      29.97R
$$

VAZ088>098-290000-
SOUTHEAST VIRGINIA

CITY           SKY/WX    TMP DP  RH WIND       PRES   REMARKS
NORFOLK        CLEAR     82  68  62 NE5       29.95S
VIRGINIA BEACH PTCLDY    83  65  54 N5        29.95S
NORFOLK NAVAL  MOCLDY    83  69  62 E5        29.97S
WEST POINT*    CLEAR     84  57  39 NE3       29.97R
NEWPORT NEWS   CLEAR     86  68  54 N6        29.95S
LANGLEY AFB    CLEAR     81  72  73 E3        29.95S
FORT EUSTIS    CLEAR     86  62  44 NE3       29.94S
WILLIAMSBURG*  CLEAR     84  66  54 CALM      29.96S
FRANKLIN*      CLEAR     84  72  65 CALM      29.95S
WAKEFIELD      CLEAR     84  73  69 CALM      29.95S
$$

VAZ020-022-025-037-045-290000-
WESTERN AND SOUTHWEST VIRGINIA

CITY           SKY/WX    TMP DP  RH WIND       PRES   REMARKS
STAUNTON*      CLEAR     83  57  41 NE8       30.03S
HOT SPRINGS VA CLEAR     71  51  49 NW7       30.18S
LYNCHBURG      CLEAR     83  72  69 SW3       29.99F
DANVILLE       CLEAR     86  70  58 E3        29.97S
MARTINSVILLE   CLEAR     85  75  71 CALM      30.02S
ROANOKE        PTCLDY    85  64  49 NW12      30.02S
BLACKSBURG     SUNNY     81  66  61 NW3       30.09F
DUBLIN*        SUNNY     81  66  61 N3        30.09F
MARION*        SUNNY    N/A N/A N/A NW6       30.13S
HILLSVILLE*    SUNNY     79  65  60 N5        30.11S
RICHLANDS*     CLEAR     80  67  63 N3        30.12S
WISE*          SUNNY     77  64  65 N6        30.13S
ABINGDON*      SUNNY     84  67  57 CALM      30.08S
$$

MDZ021>025-VAZ099-100-290000-
SOUTHERN MARYLAND AND THE DELMARVA PENINSULA

CITY           SKY/WX    TMP DP  RH WIND       PRES   REMARKS
PATUXENT RIVER PTCLDY    79  63  57 N5        29.97R
BAY BRIDGE APT   N/A     79  55  44 N9        29.98R
LEONARDTOWN    CLEAR     79  55  44 CALM      29.99S
DOVER          CLEAR     76  58  52 N10       29.96R
GEORGETOWN     PTCLDY    79  60  52 VRB7      29.98R
EASTON         CLEAR     81  59  47 N5        30.01
CAMBRIDGE      CLEAR     81  59  47 NW5       29.97S
SALISBURY      CLEAR     81  61  50 N6        29.97R
OCEAN CITY     PTCLDY    78  60  53 NW8       29.96R
WALLOPS ISLAND CLEAR     81  65  58 N5        29.97R
ACCOMACK*      NOT AVBL
$$

NCZ012>017-030>032-290000-
EASTERN NORTH CAROLINA

CITY           SKY/WX    TMP DP  RH WIND       PRES   REMARKS
ELIZABETH CITY PTCLDY    80  72  76 E6        29.96S
AHOSKIE*       CLEAR     83  75  77 CALM      29.96S
EDENTON*       PTCLDY    86  73  64 CALM      29.95S
CURRITUCK*     PTCLDY    80  69  68 E5        29.97S
KILL DEVIL HLS MOCLDY    77  69  75 E3        29.96S
MANTEO         PTCLDY    77  69  76 E6        29.98R
CAPE HATTERAS  CLEAR     80  71  74 SW8       29.97R
GOLDSBORO      CLEAR     88  77  70 NW2       29.94R HX 100
WASHINGTON     CLEAR     86  73  66 NW3       29.96R
GREENVILLE     CLEAR     86  73  66 CALM      29.98S
NEW BERN       MOCLDY    86  71  60 S7        29.97R
WILMINGTON     CLEAR     86  67  52 SW10      29.97R
$$

VAZ048-290000-
ELSEWHERE

CITY           SKY/WX    TMP DP  RH WIND       PRES   REMARKS
HARRISBURG PA  PTCLDY    75  52  44 NW8       30.00S
BALTIMORE      PTCLDY    79  51  37 NW7       29.98S
ANNAPOLIS      CLEAR     80  56  43 NW10      29.98R
ANDREWS AFB    CLEAR     78  56  47 N10       29.99R
WILMINGTON DE  CLEAR     75  52  44 NW13      29.99R
PHILADELPHIA   PTCLDY    78  50  37 NW13      29.98R
WILDWOOD NJ*   CLEAR     75  54  46 NW7       29.97R
ATLANTIC CITY  CLEAR     75  53  46 NW6       29.96R
HENDERSON NC   CLEAR     84  70  62 CALM      29.97S
GREENSBORO     PTCLDY    88  67  49 CALM      29.98S
ROCKY MOUNT    CLEAR     85  77  77 CALM      29.96R HX  95
FAYETTEVILLE   CLEAR     89  72  56 SE6       29.95R HX  96
CHARLOTTE      MOSUNNY   88  66  48 W3        29.99S
$$

VAZ100-290000-
MARINE

STATION/POSITION TIME  TEMP    WIND        PRES    WAVE   SWELL
                       AIR SEA DIR/SP/G            HT/PER HT/PER
                 (UTC) (F)     (DEG/KT/KT) (MB)    (FT/S) (FT/S)
44066 TX TWR #4  2300   74 72  300/ 10/ 12 1012.8R   6/13   5/13
CAPE MAY NJ      2300   78 81  320/ 14/ 19 1014.1S
LEWES DE         2300   77 78   10/ 16/ 19 1014.4S
15NM E FENWICK I 2300   76 74              1014.0R   5/12
OCEAN-CITY-INLET 2300   80 78  350/ 11/ 14 1014.1R
WACHAPREAGUE VA  2300   83 83  310/  1/  4 1014.5S
THOMAS POINT MD  2300   80 79  340/ 10/ 11 1015.9R
GOOSES REEF MD   2300   81     340/  6/  8 1015.4S
COVE POINT MD    2300   80     360/ 12/ 14 1014.9R
SOLOMONS ISLAND  2300      81                N/A
BISHOPS HEAD MD  2300   81 81  330/  9/ 11 1014.5R
PINEY POINT MD   2300          350/ 11/ 12   N/A
POTOMAC MD       2300   81      30/ 10/ 12 1014.3R
CAMBRIDGE MD     2300   80 81  340/  9/ 11 1014.6S
LEWISETTA VA     2300   82 81  330/  6/  8 1014.5S
RAPPAHANNOCK LGT 2300           10/  6/  7 1015.2R
STINGRAY PT      2300   80      50/  6/  8   N/A
YORK RVR RNG VA  2300   79      90/  7/  7 1014.0S
YORKTOWN VA      2300   80 80   80/  9/ 10 1014.1R
JAMESTOWN VA     2300   86     280/  2/  2   N/A
DOMINION TERM VA 2300   82      30/  2/  4 1014.5R
KIPTOPEKE VA     2300      81  340/  4/  4   N/A
CHES BAY BRIDGE  2300   79 79   40/  3/  3 1014.0S
CAPE HENRY VA    2300   82      CALM  /  1 1013.2F
CHESAPEAKE LGHT  2200   78      CALM  /  2 1015.1R
WILLOUBY STN VA  2300   79      30/  1/  1 1013.3S
S CRANEY ISL VA  2300           30/  2/  3 1014.1R
CAPE HENRY BUOY  2300      79                N/A     3/11   2/11
1ST LANDING BUOY 2300   81      40/  2/  4 1014.1S
CAPE CHARLES BUO 2300      79                N/A     3/11   2/11
OFFSHORE WE BUOY 2300      78                N/A     4/11   3/11
64NM E OF VA BCH 2300   78 76   CALM  /  2 1014.4R   4/11   5/11
DUCK PIER NC     2300   78 78   90/  6/  7 1014.0S
44056 DUCK FRF   2200                        N/A     3/11   2/11
OREGON INLET NC  2300   77 78   80/  6/  8 1015.1R
HATTERAS NC      2300   82 80  220/  7/ 11 1015.1S
DIAMOND SHLS NC  2300   82     230/ 12/ 14 1014.6R   5/10   5/10
CAPE LOOKOUT NC  2200   82     230/  7/  9 1014.7R
$$


USA.gov is the U.S. government's official web portal to all federal, state and local government web resources and services.